This is the latest recevied weather packets stored in our database for station/object I1SXT-13. If no packets are shown the sender has not sent any weather packets the latest 10 day(s).
| Time | Temp. | Humidity | Pressure | Rain* | Wind** | Luminosity | Snow |
|---|---|---|---|---|---|---|---|
| 1777886968 | 18.33° C | 66% | 1020.4 hPa | 0 mm | - | - | - |
| 1777886367 | 17.78° C | 67% | 1020.7 hPa | 0 mm | - | - | - |
| 1777886070 | 17.78° C | 68% | 1019.9 hPa | 0 mm | - | - | - |
| 1777885766 | 17.78° C | 69% | 1019.5 hPa | 0 mm | - | - | - |
| 1777885469 | 17.78° C | 68% | 1020 hPa | 0 mm | - | - | - |
| 1777885165 | 17.78° C | 69% | 1020.2 hPa | 0 mm | - | - | - |
| 1777884867 | 17.78° C | 68% | 1019.8 hPa | 0 mm | - | - | - |
| 1777884266 | 18.33° C | 63% | 1020.4 hPa | 0 mm | - | - | - |
| 1777883969 | 17.78° C | 62% | 1019.5 hPa | 0 mm | - | - | - |
| 1777883665 | 17.78° C | 60% | 1019.3 hPa | 0 mm | - | - | - |
| 1777883368 | 17.78° C | 60% | 1019.9 hPa | 0 mm | - | - | - |
| 1777883064 | 17.22° C | 62% | 1019.9 hPa | 0 mm | - | - | - |
| 1777882766 | 16.67° C | 64% | 1019.7 hPa | 0 mm | - | - | - |
| 1777882469 | 16.11° C | 66% | 1019.7 hPa | 0 mm | - | - | - |
| 1777882165 | 16.11° C | 67% | 1019.8 hPa | 0 mm | - | - | - |
| 1777881868 | 15.56° C | 67% | 1019.3 hPa | 0 mm | - | - | - |
| 1777881564 | 15.56° C | 69% | 1019.1 hPa | 0 mm | - | - | - |
| 1777881267 | 15° C | 70% | 1019.5 hPa | 0 mm | - | - | - |
| 1777880969 | 15° C | 71% | 1020 hPa | 0 mm | - | - | - |
| 1777879767 | 14.44° C | 71% | 1019.3 hPa | 0 mm | - | - | - |
| 1777879470 | 14.44° C | 72% | 1019.5 hPa | 0 mm | - | - | - |
| 1777879165 | 14.44° C | 70% | 1019.7 hPa | 0 mm | - | - | - |
| 1777878868 | 14.44° C | 70% | 1019.5 hPa | 0 mm | - | - | - |
| 1777878564 | 14.44° C | 70% | 1019.3 hPa | 0 mm | - | - | - |
| 1777878267 | 14.44° C | 72% | 1019.3 hPa | 0 mm | - | - | - |
* Rain since midnight (hover to see other rain measurements)
** Current wind speed in m/s (hover to see current wind gust speed)